Location: Poughquag
(41.6090°N, 73.6820°W)
Time: 12:16:01
(UTC-04:00)

Transit 4A - Pass Details

Date: 29 May 2020
Orbit: 866 x 978 km, 66.8° (Epoch: 06 July)

Event Time Altitude Azimuth Distance (km) Brightness Sun altitude
Rises 01:13:06 0° 160° (SSE) 3,433 - -26.5°
Reaches altitude 10° 01:16:32 10° 139° (SE) 2,503 - -26.4°
Exits shadow 01:19:31 16° 107° (ESE) 2,127 9.7 -26.4°
Maximum altitude 01:19:52 16° 103° (ESE) 2,123 9.7 -26.4°
Drops below altitude 10° 01:23:14 10° 68° (ENE) 2,531 10.5 -26.3°
Sets 01:26:43 0° 47° (NE) 3,491 11.7 -26.2°
